Tracking 25703 objects as of 2-Jul-2022
HD Live streaming from Space Station
objects crossing your sky now

GEO IK

Track GEO IK now!
10-day predictions
GEO IK is classified as:


NORAD ID: 23411
Int'l Code: 1994-078A
Perigee: 1,487.1 km
Apogee: 1,533.4 km
Inclination: 73.6 °
Period: 116.1 minutes
Semi major axis: 7881 km
RCS: 11.135 m2 (large)
Launch date: November 29, 1994
Source: Commonwealth of Independent States (former USSR) (CIS)
Launch site: PLESETSK MISSILE AND SPACE COMPLEX (PKMTR)
aabbcc
Your satellite tracking list
Your tracking list is empty




NASA's NSSDC Master Catalog

Two Line Element Set (TLE):
1 23411U 94078A   22182.77693035 -.00000001  00000-0  12109-3 0  9992
2 23411  73.6151 302.9065 0029385 262.9425 207.6293 12.40832233249640
Source of the keplerian elements: AFSPC